TimeCDT,TemperatureF,Dew PointF,Humidity,Sea Level PressureIn,VisibilityMPH,Wind Direction,Wind SpeedMPH,Gust SpeedMPH,PrecipitationIn,Events,Conditions,WindDirDegrees,DateUTC
12:52 AM,68.0,62.1,81,29.95,10.0,SE,11.5,-,N/A,,Clear,140,2013-09-27 05:52:00
1:52 AM,66.9,62.1,84,29.96,10.0,SE,10.4,-,N/A,,Clear,140,2013-09-27 06:52:00
2:52 AM,66.9,62.1,84,29.96,10.0,SSE,8.1,-,N/A,,Clear,150,2013-09-27 07:52:00
3:52 AM,66.0,62.1,87,29.97,10.0,SE,6.9,-,N/A,,Clear,140,2013-09-27 08:52:00
4:52 AM,64.9,62.1,90,29.98,10.0,SSE,9.2,-,N/A,,Clear,150,2013-09-27 09:52:00
5:52 AM,66.0,62.1,87,29.99,10.0,SSE,10.4,-,N/A,,Clear,150,2013-09-27 10:52:00
6:52 AM,64.9,62.1,90,29.99,10.0,SSE,9.2,-,N/A,,Clear,150,2013-09-27 11:52:00
7:52 AM,66.0,62.1,87,30.01,10.0,SSE,11.5,-,N/A,,Clear,160,2013-09-27 12:52:00
8:52 AM,69.1,64.0,84,30.02,10.0,SSE,12.7,-,N/A,,Clear,150,2013-09-27 13:52:00
9:52 AM,73.9,64.0,71,30.02,10.0,SSE,15.0,-,N/A,,Clear,160,2013-09-27 14:52:00
10:52 AM,77.0,63.0,62,30.02,10.0,South,17.3,-,0.00,,Clear,170,2013-09-27 15:52:00
11:52 AM,79.0,62.1,56,30.00,10.0,South,16.1,-,0.00,,Clear,170,2013-09-27 16:52:00
12:52 PM,82.0,61.0,49,29.98,10.0,SSE,16.1,-,N/A,,Clear,150,2013-09-27 17:52:00
1:52 PM,82.9,61.0,47,29.96,10.0,SSE,15.0,-,N/A,,Clear,150,2013-09-27 18:52:00
2:52 PM,82.9,61.0,47,29.94,10.0,SE,12.7,-,N/A,,Clear,140,2013-09-27 19:52:00
3:52 PM,82.0,57.9,44,29.93,10.0,South,12.7,-,N/A,,Clear,180,2013-09-27 20:52:00
4:52 PM,82.9,57.0,41,29.92,10.0,SSE,13.8,-,0.00,,Clear,160,2013-09-27 21:52:00
5:52 PM,81.0,59.0,47,29.93,10.0,SE,15.0,-,N/A,,Clear,140,2013-09-27 22:52:00
6:52 PM,77.0,60.1,56,29.93,10.0,SSE,9.2,-,N/A,,Clear,150,2013-09-27 23:52:00
7:52 PM,75.0,62.1,64,29.93,10.0,SSE,10.4,-,N/A,,Clear,150,2013-09-28 00:52:00
8:52 PM,73.9,62.1,66,29.93,10.0,SSE,11.5,-,N/A,,Clear,150,2013-09-28 01:52:00
9:52 PM,72.0,63.0,73,29.94,10.0,SSE,9.2,-,N/A,,Clear,150,2013-09-28 02:52:00
10:52 PM,71.1,62.1,73,29.94,10.0,SSE,12.7,-,N/A,,Clear,150,2013-09-28 03:52:00
11:52 PM,71.1,62.1,73,29.94,10.0,SSE,12.7,-,N/A,,Clear,160,2013-09-28 04:52:00